Simultaneous Nadir Overpasses (SNOs) Predictions

Prediction of SNOs between METOP-A and NOAA-19 Satellite Orbit:

Table of predicted SNOs for the next 14.0 days since TLE Epoch: 7/6/2019
Index Date (METOP-A) Time (METOP-A) Lat,Lon (METOP-A) SZA (METOP-A ) Date (NOAA-19) Time (NOAA-19) Lat,Lon (NOAA-19) SZA (NOAA-19 ) Distance(km) Time Diff (sec)
1 07/08/2019 01:58:23 -79.78, -17.33 122.59 07/08/2019 01:57:10 -79.77, -17.37 122.61 1.24 73
2 07/08/2019 02:49:04 79.77, 149.90 57.40 07/08/2019 02:48:06 79.77, 149.91 57.40 0.36 58
3 07/08/2019 03:39:45 -79.77, -42.78 122.60 07/08/2019 03:39:11 -79.78, -42.93 122.60 3.25 34
4 07/08/2019 04:30:26 79.76, 124.45 57.39 07/08/2019 04:30:07 79.78, 124.35 57.41 2.96 19
5 07/08/2019 05:21:07 -79.76, -68.22 122.61 07/08/2019 05:21:11 -79.76, -68.19 122.60 0.66 4
6 07/08/2019 06:11:48 79.74, 99.00 57.39 07/08/2019 06:12:07 79.76, 99.10 57.40 2.23 19
7 07/08/2019 07:02:29 -79.74, -93.67 122.61 07/08/2019 07:03:12 -79.76, -93.75 122.59 2.50 43
8 07/08/2019 07:53:10 79.73, 73.55 57.38 07/08/2019 07:54:08 79.76, 73.54 57.41 3.15 58
9 07/19/2019 01:30:23 -80.01, -8.38 120.70 07/19/2019 01:29:18 -79.99, -12.54 120.88 80.30 65
10 07/19/2019 02:21:10 79.80, 157.02 59.03 07/19/2019 02:20:08 79.79, 157.14 59.01 3.05 62
11 07/19/2019 03:11:51 -79.81, -35.56 120.96 07/19/2019 03:11:11 -79.79, -35.66 120.99 3.19 40
12 07/19/2019 04:02:32 79.79, 131.57 59.03 07/19/2019 04:02:09 79.79, 131.58 59.02 0.36 23
13 07/19/2019 04:53:14 -79.77, -61.29 121.00 07/19/2019 04:53:12 -79.80, -61.22 120.97 3.29 2
14 07/19/2019 05:43:54 79.78, 106.12 59.02 07/19/2019 05:44:10 79.80, 106.03 59.04 2.71 16
15 07/19/2019 06:34:35 -79.79, -86.46 120.96 07/19/2019 06:35:12 -79.78, -86.48 120.97 1.62 37
16 07/19/2019 07:25:16 79.77, 80.67 59.02 07/19/2019 07:26:10 79.78, 80.77 59.04 2.29 54




NCC Satellite Simultaneous Nadir Overpasses (SNOs) Prediction Service
